Satellite: DO-64
Catalog number: 32789
Epoch time:      08227.88133915
Element set:     129
Inclination:      097.9878 deg
RA of node:       287.6333 deg
Eccentricity:    0.0014887
Arg of perigee:   309.9954 deg
Mean anomaly:     049.9948 deg
Mean motion:   14.81449601 rev/day
Decay rate:       4.59e-06 rev/day^2
Epoch rev:            1609
Checksum:              380

Satellite: SEEDS
Catalog number: 32791
Epoch time:      08227.89069015
Element set:     116
Inclination:      097.9869 deg
RA of node:       287.6183 deg
Eccentricity:    0.0015368
Arg of perigee:   308.1204 deg
Mean anomaly:     051.8618 deg
Mean motion:   14.81302254 rev/day
Decay rate:       1.33e-06 rev/day^2
Epoch rev:            1606
Checksum:              299

Satellite: CANX-2
Catalog number: 32797
Epoch time:      08226.10209254
Element set:    0063
Inclination:      097.9942 deg
RA of node:       285.9583 deg
Eccentricity:    0.0015611
Arg of perigee:   319.8527 deg
Mean anomaly:     040.1563 deg
Mean motion:   14.81933659 rev/day
Decay rate:      1.673e-05 rev/day^2
Epoch rev:           01451
Checksum:              314

Satellite: RS-30
Catalog number: 32953
Epoch time:      08226.71877533
Element set:    0082
Inclination:      082.4983 deg
RA of node:       087.8157 deg
Eccentricity:    0.0019423
Arg of perigee:   126.6198 deg
Mean anomaly:     233.6668 deg
Mean motion:   12.42996914 rev/day
Decay rate:        1.0e-07 rev/day^2
Epoch rev:           01019
Checksum:              320

/EX






More information about the Keps mailing list